Regional Weather Roundup
Issued by NWS

Home | Current Version | Previous Version | Graphics & Text | Print | Product List | Glossary On
Versions: 1 2 3 4 5 6 7 8 9 10 11 12 13 14 15 16 17 18 19 20 21 22 23 24 25 26 27 28 29 30 31 32 33 34 35 36 37 38 39 40 41 42 43 44 45 46 47 48 49 50
000
ASUS45 KTFX 052010
RWRMT
MONTANA REGIONAL WEATHER ROUNDUP
NATIONAL WEATHER SERVICE GREAT FALLS MT
200 PM MDT SUN JUL 05 2015

NOTE: "FAIR" INDICATES FEW OR NO CLOUDS BELOW 12000 FEET WITH NO
SIGNIFICANT WEATHER AND/OR OBSTRUCTIONS TO VISIBILITY.

MTZ001>007-043-052100-
WEST OF THE DIVIDE

CITY           SKY/WX    TMP DP  RH WIND       PRES   REMARKS
KALISPELL      CLOUDY    63  42  46 NE17      30.10R
MISSOULA       PTSUNNY   74  47  38 NE12G18   30.00S
BUTTE          MOSUNNY   66  48  52 VRB5      30.10F
MULLAN PASS    MOSUNNY   68  49  50 VRB3      30.11S
DEER LODGE       N/A     66  48  52 N10G18    30.11F
EUREKA           N/A     70  39  32 N9        30.09F
HAMILTON         N/A     75  50  41 N15       29.94F
LIBBY            N/A     70  45  40 CALM      30.07F
PLAINS           N/A     77  51  39 SW1       30.00F
RONAN            N/A     70  49  47 N15       30.09R
THOMPSON FALLS   N/A     80  48  32 NE15      30.00F
$$

MTZ008-052>055-052100-
SOUTHWEST MONTANA

CITY           SKY/WX    TMP DP  RH WIND       PRES   REMARKS
BOZEMAN        CLOUDY    65  51  60 NW5       30.09S
DILLON         PTSUNNY   70  50  49 NE20      30.05S
W YELLOWSTONE  CLOUDY    66  52  59 SW14G20   30.14F
THREE FORKS      N/A     66  60  81 NE8       30.08S
TWIN BRIDGES     N/A     69  48  46 N23       30.04S
$$

MTZ009-010-012-014-046-048-049-054-052100-
EAST SLOPES AND CENTRAL MONTANA

CITY           SKY/WX    TMP DP  RH WIND       PRES   REMARKS
CUT BANK       CLOUDY    53  47  79 N12       30.21S
GREAT FALLS    CLOUDY    51  49  92 N13       30.19R
MALMSTROM AFB  LGT RAIN  52  50  93 N10       30.20R
HELENA         CLOUDY    59  46  62 N12       30.14F
CONRAD           N/A     53  53 100 NW9       30.20F
$$

MTZ011-013-016-021-045-047-050-051-052100-
NORTH CENTRAL MONTANA

CITY           SKY/WX    TMP DP  RH WIND       PRES   REMARKS
HAVRE          CLOUDY    60  55  83 MISG      30.14F
LEWISTOWN      LGT RAIN  56  52  86 NE6       30.16R FOG
CHINOOK          N/A     63  55  77 SW8       30.13F
FORT BENTON      N/A     54  48  82 NW9       30.20R
$$

MTZ017>020-022>027-061-062-052100-
NORTHEAST MONTANA

CITY           SKY/WX    TMP DP  RH WIND       PRES   REMARKS
GLASGOW        MOSUNNY   69  50  50 NW14G21   30.06S
JORDAN           N/A     68  50  52 N18       30.08S
SIDNEY         CLOUDY    75  48  38 NW14      29.98S
WOLF POINT     MOSUNNY   74  46  36 N18G26    30.03R
PLENTYWOOD       N/A     70  46  43 NW15G23   30.00S
POPLAR           N/A     72  48  43 NW16G24   30.02R
SCOBEY           N/A     70  43  37 NW13      30.02S
$$

MTZ028>42-056>058-052100-
SOUTHCENTRAL AND SOUTHEAST MONTANA

CITY           SKY/WX    TMP DP  RH WIND       PRES   REMARKS
BAKER          CLOUDY    67  55  65 N16       30.03S
BILLINGS       CLOUDY    63  48  58 E13       30.13S
LIVINGSTON     CLOUDY    64  50  60 E21G28    30.10S HAZE
MILES CITY     CLOUDY    70  51  51 N12       30.04R
EKALAKA          N/A     64  56  75 NW15      30.01R
FORSYTH          N/A     68  48  49 NW10      30.06S
LAUREL           N/A     62  46  55 NE6       30.10S
ROUNDUP          N/A     64  45  50 N8        30.03S
$$

REGIONAL REPORTS...DAKOTAS

CITY           SKY/WX    TMP DP  RH WIND       PRES   REMARKS
WILLISTON      MOSUNNY   76  48  37 N16G23    29.97S
MINOT          CLOUDY    74  60  61 NW14      29.89R HAZE
DICKINSON      CLOUDY    70  59  68 N18G30    29.91F
BEACH          LGT RAIN  63  57  82 N7        30.02R
CROSBY         FAIR      72  54  53 NW20G25   29.97S HAZE
BISMARCK       PTSUNNY   79  63  57 N16G26    29.85R
GRAND FORKS    CLOUDY    70  66  88 W7        29.77R
FARGO          CLOUDY    82  69  64 SW3       29.71F
BUFFALO SD       N/A     75  59  57 N21       29.90R
RAPID CITY     CLOUDY    79  65  62 N18G24    29.90S
$$

REGIONAL REPORTS...WYOMING/IDAHO/WASHINGTON

CITY           SKY/WX    TMP DP  RH WIND       PRES   REMARKS
GILLETTE       CLOUDY    65  58  78 N14       30.05R
SHERIDAN       CLOUDY    62  55  77 N14       30.10R HAZE
BUFFALO WY     LGT RAIN  61  55  81 NW8       30.12S
CODY           CLOUDY    57  54  88 N9        30.13S
YELLOWSTONE LA   N/A     60  48  64 W5        30.25S
IDAHO FALLS    CLOUDY    78  53  41 SW21G29   30.04F
SALMON         CLOUDY    84  46  26 W3        29.87S
BOISE          CLOUDY    83  51  33 NW7       29.95R
SPOKANE        MOSUNNY   84  48  28 N15G23    29.91S
$$

REGIONAL REPORTS...ALBERTA

CITY           SKY/WX    TMP DP  RH WIND       PRES   REMARKS
EDMONTON       MOSUNNY   64  36  34 N8        30.17S
CALGARY        PTSUNNY   63  45  51 N15G23    30.20F
LETHBRIDGE     PTSUNNY   61  45  55 NW14G20   30.18F
MEDICINE HAT   CLOUDY    66  46  48 NW14      30.13S
WATERTON GATE    N/A     54  43  66 CALM        N/A
CARDSTON         N/A     54  48  82 W5          N/A
MILK RIVER       N/A     55  48  76 NW12        N/A
ONEFOUR          N/A     61  48  63 NW16G22     N/A
$$

REGIONAL REPORTS...SASKATCHEWAN

CITY           SKY/WX    TMP DP  RH WIND       PRES   REMARKS
SWIFT CURRENT  PTSUNNY   64  46  52 NW15G24   30.06F
REGINA         CLOUDY    70  50  49 NW16G28   30.00R
SASKATOON      PTSUNNY   68  48  49 N13G20    30.03S
CYPRESS HILLS    N/A     55  46  71 N8          N/A
VAL MARIE        N/A     66  46  48 NW17G23     N/A
ROCKGLEN         N/A     64  48  55 NW13G18     N/A
ASSINIBOIA       N/A     63  46  55 N16         N/A
$$


USA.gov is the U.S. government's official web portal to all federal, state and local government web resources and services.